Theta_e
282 282 282 283 283 283 283 283 283 283 283 283 283 283 283 283 283 283 284 284 284 284 284 284 284 284 284 284 284 284 284 284 284 283 283 283 283 283 283 283 283 283 283 284 284 285 285 284 284 284 283 283 283 283 284 284 284 285 285 285 285 285 285 285 285 285 285 285 286
281 281 282 282 282 283 283 282 283 283 283 283 283 283 283 284 283 283 283 283 283 284 284 284 284 284 284 284 284 284 284 283 283 283 283 283 283 283 283 283 283 282 282 283 283 283 284 284 283 283 282 282 282 282 282 283 283 283 284 283 284 284 284 284 284 284 284 284 285
280 281 281 281 282 282 282 282 282 282 282 283 283 283 284 284 284 283 283 283 283 283 283 283 283 283 283 283 283 283 283 283 282 282 282 282 282 282 282 282 282 282 282 282 282 282 283 283 282 282 281 281 281 281 281 282 282 282 282 282 283 283 283 283 283 283 283 283 284
280 280 280 281 281 281 281 281 281 281 282 283 283 283 283 284 284 283 283 283 283 283 282 282 282 282 282 282 282 282 282 282 282 282 281 281 281 282 282 282 282 282 281 281 282 282 282 282 282 281 281 280 280 280 280 281 281 281 282 282 282 282 282 282 282 282 282 282 283
280 280 280 280 280 280 281 281 281 281 282 282 283 283 283 283 283 283 283 283 282 282 282 282 282 282 282 282 281 281 281 281 281 281 281 281 281 281 281 281 281 281 281 281 281 281 281 281 281 281 280 280 279 279 280 280 280 280 281 281 281 281 281 281 281 282 282 282 282
279 280 280 280 280 280 280 281 281 281 282 282 282 282 283 283 283 283 282 282 282 282 282 282 281 281 281 281 281 280 280 280 280 280 280 280 280 280 280 280 280 280 281 281 281 281 281 281 280 280 280 279 279 279 279 279 279 279 279 280 280 280 280 280 281 281 281 281 281
279 280 279 280 280 280 280 281 281 282 282 282 282 281 282 282 282 282 282 281 281 281 281 281 281 281 280 280 280 280 280 280 280 279 279 279 279 279 279 280 280 280 280 280 280 280 280 280 280 279 279 279 279 279 278 279 278 278 278 278 279 279 279 279 280 280 280 279 280
279 279 280 280 280 280 280 280 281 281 281 282 281 281 281 281 281 281 281 281 281 281 281 281 280 280 280 280 280 279 279 279 279 279 279 279 279 279 279 279 279 279 279 279 279 279 279 279 279 278 278 278 278 278 278 277 277 277 277 277 278 278 278 278 278 279 278 278 278
279 279 280 280 280 280 280 280 280 281 281 281 281 281 281 281 281 282 282 281 281 281 280 280 280 280 280 279 279 279 279 279 278 278 278 278 278 278 278 278 278 278 278 279 279 279 278 278 278 278 278 277 277 277 277 277 276 276 276 276 276 277 277 277 277 277 277 277 277
279 279 279 279 279 280 280 280 280 280 280 280 281 281 281 282 282 282 282 282 281 281 280 280 279 279 279 279 279 279 278 278 278 278 278 278 278 278 278 278 278 278 278 278 278 278 278 278 277 277 277 277 276 276 276 276 275 275 275 276 275 275 275 276 276 276 276 276 276
278 279 279 279 279 279 279 279 279 280 280 280 280 280 280 281 281 281 281 282 281 281 280 280 279 279 279 279 278 278 278 278 278 278 277 277 277 277 277 277 277 277 277 277 278 277 277 277 276 276 276 276 276 276 275 275 275 275 274 275 274 274 274 275 275 275 275 275 275
278 278 278 279 278 279 279 279 279 279 279 279 279 279 279 279 280 280 280 281 281 281 280 280 280 279 279 279 279 279 278 278 278 277 277 276 276 276 277 277 277 277 277 277 277 277 277 276 276 275 275 275 275 275 275 274 274 274 274 274 274 274 274 274 274 275 275 274 274
277 277 278 278 278 278 278 278 278 278 278 278 279 279 279 279 279 279 279 280 280 280 280 280 279 279 278 278 278 278 278 278 278 277 277 276 276 276 276 277 277 277 277 278 277 277 277 276 275 275 274 274 274 274 274 274 273 273 273 273 274 274 274 274 274 275 275 275 275
276 276 276 277 277 277 277 277 277 278 278 277 278 278 278 278 279 279 279 279 280 280 280 279 279 278 278 278 278 278 277 277 277 277 277 277 277 276 276 276 276 277 278 278 277 277 277 276 275 274 274 273 274 274 274 274 273 273 273 274 274 274 274 275 275 275 275 276 275
276 276 276 276 276 276 276 276 276 277 277 277 277 277 277 278 278 278 278 278 279 279 279 279 278 278 279 279 278 277 277 277 277 278 277 276 276 276 276 276 276 277 277 278 276 276 276 276 275 275 274 273 273 273 273 273 273 273 274 274 274 274 274 275 275 276 276 276 276
275 275 275 275 275 275 275 275 276 276 276 276 276 276 276 277 277 277 277 277 278 278 278 278 278 278 278 278 278 277 277 277 277 278 277 276 276 275 275 275 275 276 277 278 276 275 275 275 275 275 274 273 273 273 272 272 272 273 273 273 274 274 274 275 276 276 276 276 276
274 275 275 275 275 274 275 275 275 275 275 275 275 275 276 276 276 276 277 277 276 276 276 276 277 277 277 277 277 277 277 277 278 278 277 276 275 275 274 274 274 276 277 277 276 275 274 275 275 274 274 273 273 273 273 272 272 272 272 273 274 274 275 275 275 275 275 275 275
274 274 274 274 274 274 274 274 274 274 274 274 274 274 275 275 275 276 276 276 275 275 275 275 276 276 276 276 276 277 277 278 278 278 277 276 275 275 274 273 273 275 277 276 275 274 274 275 275 275 274 273 273 273 273 273 272 272 272 273 274 275 274 274 273 273 273 273 273
273 273 273 273 273 274 274 275 274 274 274 274 274 274 274 274 275 275 275 275 275 275 275 275 274 274 275 275 276 277 278 278 278 277 276 275 274 274 273 272 273 275 276 275 274 274 275 276 275 275 274 273 273 273 274 274 273 273 274 274 274 273 272 270 270 269 269 269 270
272 272 272 272 273 273 274 274 274 274 274 274 274 274 274 274 274 274 274 274 275 274 274 274 274 274 274 275 277 278 278 278 278 278 277 277 276 274 273 272 273 274 276 277 276 276 276 276 276 275 274 273 273 273 274 274 274 274 275 275 274 272 270 269 269 269 269 269 270
271 271 271 272 272 273 274 274 273 273 273 273 273 273 273 274 274 274 274 274 275 274 274 274 274 274 274 276 278 279 279 279 279 278 278 277 276 275 274 274 272 273 275 277 276 276 275 276 276 275 274 273 273 274 275 274 274 274 274 274 273 271 270 270 270 270 270 270 270
271 271 271 271 272 273 274 274 272 272 272 272 272 272 272 272 273 273 274 274 275 275 275 274 274 274 275 277 278 279 279 279 278 278 277 276 275 275 275 275 272 274 276 276 275 274 274 275 276 276 274 273 273 274 275 274 274 274 273 272 271 271 270 270 270 270 270 270 270
270 270 271 271 272 273 273 273 272 271 271 271 272 272 272 272 272 272 273 274 274 275 275 274 274 274 275 277 278 278 279 278 278 278 277 276 275 274 274 274 272 273 274 273 275 276 275 276 276 276 275 273 273 274 274 274 274 273 272 271 270 270 270 269 269 269 270 271 271
269 270 270 271 271 271 272 272 271 271 271 271 272 272 272 272 272 272 272 272 273 273 273 273 273 274 275 277 278 278 277 277 276 276 276 275 274 273 272 272 271 272 273 274 277 278 277 277 276 276 275 274 274 274 273 273 272 271 270 270 270 270 270 270 269 269 270 270 270
269 269 270 270 270 271 271 272 272 272 272 272 272 272 272 272 272 272 272 273 273 273 273 273 273 274 275 277 277 277 276 275 274 273 273 272 272 271 271 271 271 271 273 277 279 280 279 279 278 276 275 275 275 274 273 272 271 271 270 270 270 270 270 270 270 271 271 271 271
269 269 269 270 270 270 270 272 273 273 272 272 272 272 272 273 272 272 272 273 273 273 273 273 273 275 276 276 276 275 274 273 273 272 271 270 270 270 270 270 271 272 274 278 279 280 280 280 279 278 276 275 275 274 273 272 271 271 271 270 270 270 270 270 271 271 272 272 272
268 268 268 269 269 269 270 273 274 273 273 273 272 272 272 272 272 272 272 272 272 273 273 273 274 275 276 275 275 274 273 272 272 272 271 270 270 270 270 270 271 272 275 279 279 280 280 280 280 279 278 276 275 273 272 271 271 271 271 270 270 270 270 270 270 271 272 273 272
267 268 268 269 269 269 270 273 273 272 272 272 272 272 272 272 272 272 272 272 272 272 272 272 273 274 275 275 274 273 272 271 271 271 270 270 270 269 269 269 270 272 276 280 280 280 280 280 280 280 279 277 274 273 272 271 271 270 270 270 270 270 269 270 271 271 272 272 273
267 267 268 268 269 269 270 270 271 271 271 271 272 272 273 273 273 273 273 272 272 272 272 272 273 273 274 273 272 271 271 270 270 270 269 269 269 269 269 269 269 272 276 280 280 280 280 280 280 280 280 279 275 272 271 270 270 270 269 269 269 269 270 270 271 272 273 274 275
267 267 267 268 269 269 269 269 271 272 273 273 273 273 272 273 273 273 273 272 272 272 272 272 273 273 273 272 271 271 270 270 269 269 269 268 268 268 269 270 270 272 276 280 280 280 280 280 280 280 280 280 277 274 272 270 269 269 269 269 269 270 270 271 272 274 275 275 275
266 266 266 267 268 269 269 270 271 273 274 273 273 272 272 273 274 274 273 272 272 272 273 272 273 273 272 271 271 270 270 269 269 268 268 268 269 270 269 269 269 271 275 280 280 280 280 280 280 280 280 280 277 274 271 269 269 268 269 269 270 270 270 271 272 273 274 274 273
266 265 266 266 267 268 269 270 271 272 273 273 273 273 273 274 274 274 273 273 272 271 272 272 273 272 272 271 270 270 270 269 269 268 268 268 269 269 268 269 269 271 275 280 280 280 280 280 280 280 280 280 277 275 273 269 268 268 269 269 269 270 270 271 272 273 273 272 271
265 265 265 266 267 268 269 270 271 272 273 273 273 274 274 273 274 274 273 273 271 271 271 272 272 272 271 271 270 270 269 269 270 270 270 270 269 269 269 269 268 271 276 279 280 280 280 280 280 280 280 279 276 274 271 268 268 268 269 269 269 270 270 271 272 272 272 270 269
265 265 265 266 267 268 269 270 270 271 272 273 273 273 273 273 273 272 272 272 271 270 270 271 271 271 271 270 270 269 269 270 269 268 268 268 268 269 269 268 267 271 277 279 279 280 280 280 280 280 279 278 275 272 269 269 268 268 268 269 270 271 272 272 272 271 270 269 269
266 265 266 266 266 267 268 268 269 270 271 272 272 272 272 272 271 271 271 272 272 271 270 270 270 270 270 270 269 269 269 269 268 267 266 266 267 268 268 267 267 272 277 279 280 280 280 280 280 280 279 276 272 270 269 269 268 268 268 269 271 272 272 273 272 271 270 269 270
266 266 266 266 266 267 267 268 269 269 269 270 270 270 270 270 270 271 271 272 271 270 270 270 270 270 269 269 269 269 269 268 266 265 264 265 266 267 267 267 268 272 277 279 279 280 280 280 280 280 278 273 270 269 269 269 269 269 269 270 272 273 272 272 271 270 270 270 270
265 266 266 266 266 266 267 268 268 268 268 268 268 269 269 269 270 270 271 272 270 270 270 270 270 270 269 269 268 269 268 267 266 265 265 266 266 266 266 267 266 269 274 278 279 280 280 280 280 279 277 271 269 269 269 269 269 269 270 271 271 271 270 270 270 270 270 270 271
265 266 266 266 266 266 267 268 268 267 267 267 267 268 268 269 269 270 271 272 270 270 270 270 270 269 269 268 268 267 266 266 266 265 265 264 264 264 265 266 266 268 271 277 279 280 280 280 280 279 276 271 269 269 269 270 270 269 270 270 270 269 270 270 270 270 270 270 272
265 265 266 266 266 267 267 267 267 267 267 267 267 267 268 268 269 270 271 272 271 271 271 270 270 269 268 268 267 266 265 265 265 264 264 264 264 264 266 266 266 267 271 276 279 280 280 280 279 279 277 272 269 269 270 271 270 269 269 270 269 269 269 270 270 270 270 270 273
264 265 266 266 267 267 267 267 267 267 267 267 267 267 267 268 269 271 272 271 271 271 271 271 270 269 269 269 267 266 266 265 264 264 263 263 264 267 269 265 265 266 269 275 278 279 279 279 279 279 277 272 270 269 270 270 269 269 270 271 270 270 270 270 270 270 269 269 271
264 265 266 267 267 267 267 266 266 266 266 266 266 267 268 269 270 270 270 269 270 270 271 270 269 269 269 269 267 266 266 266 266 264 263 262 263 266 268 264 264 264 266 271 277 279 279 279 279 279 277 274 271 269 269 271 270 270 270 271 270 270 270 270 270 269 269 268 269
Wind_Speed
7 6 6 5 5 5 5 5 5 4 4 4 4 4 4 4 5 5 4 4 5 5 5 5 5 5 6 8 9 9 10 11 12 13 13 14 14 14 14 14 14 14 14 13 12 12 11 11 10 9 8 8 8 8 8 7 8 9 9 9 8 8 9 10 10 11 11 11 8
7 7 7 6 6 5 5 5 6 6 5 5 4 5 5 5 5 5 5 6 5 5 5 5 6 7 8 9 9 9 10 11 12 12 13 14 14 14 14 13 14 14 14 14 13 11 10 11 10 9 8 8 8 8 9 8 9 9 10 11 9 8 8 9 9 10 10 10 9
6 7 7 7 6 6 6 5 6 6 6 5 4 4 5 5 5 5 6 6 6 6 6 6 7 8 9 10 10 10 10 11 11 11 12 12 13 13 13 13 13 14 14 13 13 11 11 11 10 9 8 8 9 9 9 9 9 9 9 10 8 7 7 7 8 8 8 8 8
6 6 6 6 7 7 6 5 6 7 6 5 5 4 4 4 5 5 5 6 6 6 6 6 7 8 9 10 10 11 11 11 11 11 11 11 12 13 13 13 13 13 13 13 13 12 12 11 9 8 9 10 10 10 9 9 9 9 8 8 7 7 7 7 7 7 7 7 8
6 6 6 6 6 6 6 6 6 6 6 5 5 5 4 4 4 4 5 5 6 6 7 7 7 7 8 9 10 11 11 11 11 11 11 11 11 12 12 13 13 12 12 12 12 12 12 11 8 8 8 9 9 9 10 10 9 8 7 7 7 7 7 7 7 7 7 7 7
5 6 6 5 6 5 5 5 6 6 5 5 5 5 5 4 4 4 5 5 6 6 7 7 7 7 8 9 9 10 10 10 10 10 10 11 10 11 12 12 13 12 12 12 12 12 11 10 8 7 8 8 9 10 11 11 10 9 8 7 7 7 7 8 7 7 7 8 9
6 6 6 6 6 5 5 5 5 5 5 5 6 6 5 5 4 4 5 5 5 5 6 6 7 7 7 8 8 9 9 9 9 10 10 10 10 10 11 11 12 12 12 12 12 12 11 10 8 7 7 7 8 9 11 11 10 9 9 8 8 7 8 8 7 7 8 10 11
6 6 6 6 6 6 5 5 5 5 5 5 6 6 6 5 4 4 4 4 4 5 5 5 6 7 7 7 8 8 8 9 9 9 9 9 10 10 10 10 11 11 12 12 11 11 11 9 8 8 8 7 7 9 10 12 11 10 9 9 8 7 7 7 7 8 9 11 12
7 7 7 7 6 6 6 5 5 5 5 5 5 6 6 5 5 4 4 4 4 4 5 5 6 7 7 7 7 7 7 8 8 9 9 9 9 9 9 9 9 10 10 10 11 11 11 9 8 8 8 8 8 9 10 12 11 10 9 8 7 7 7 7 7 8 9 10 11
7 7 7 7 7 7 6 6 5 5 5 5 6 6 6 6 5 4 4 4 4 4 4 5 5 6 6 7 6 6 6 6 7 8 8 8 8 9 8 8 8 8 8 9 9 10 10 9 8 8 9 8 9 10 11 11 11 10 9 7 7 7 7 7 7 7 8 8 9
8 7 7 7 7 7 6 6 6 6 6 6 6 6 6 7 6 5 4 3 4 5 5 5 5 5 5 5 5 5 5 5 6 6 7 7 7 8 8 8 8 8 8 8 8 8 8 8 8 9 9 8 9 9 10 10 10 9 8 7 7 7 7 7 7 7 6 7 7
7 7 7 7 7 6 6 6 5 5 6 6 6 6 6 6 6 5 4 4 5 5 5 4 5 5 5 4 4 4 4 5 5 6 6 6 7 7 7 7 7 7 7 8 8 7 7 8 8 8 9 8 7 7 8 9 8 8 8 8 7 7 7 8 7 6 6 6 7
7 7 6 7 6 6 6 5 5 5 6 6 6 6 5 5 6 5 5 5 4 4 4 4 4 4 4 4 4 4 4 4 5 6 6 6 6 7 7 7 7 7 7 7 7 7 8 8 8 8 8 8 7 7 7 8 8 7 7 8 8 8 8 8 7 7 7 7 7
6 6 6 6 6 6 5 5 5 5 5 6 5 5 5 5 5 5 5 4 3 3 3 3 4 4 4 5 4 4 4 4 6 7 7 7 7 7 7 6 7 7 7 7 6 7 8 8 8 7 7 7 7 7 7 7 7 7 7 8 8 8 8 8 7 7 7 8 8
6 6 6 6 6 5 5 5 4 4 5 5 5 5 4 4 5 4 4 4 3 3 3 3 3 4 4 5 5 4 4 4 6 7 8 7 7 7 6 6 6 6 7 7 6 6 7 8 7 7 7 7 7 6 6 6 6 6 7 7 7 7 7 7 7 7 7 7 7
6 6 6 6 6 5 5 4 4 4 4 4 4 4 4 4 4 4 4 4 3 3 2 2 3 3 3 4 5 5 4 4 6 7 7 7 7 7 6 6 6 6 6 7 6 6 6 6 6 6 6 6 6 6 6 6 5 5 6 6 6 6 6 7 7 7 7 7 7
6 6 7 7 7 6 6 5 4 4 4 5 5 5 4 4 4 4 4 4 3 3 2 2 2 2 3 3 4 4 4 4 5 6 7 7 7 6 6 6 5 5 6 6 6 5 5 5 5 5 5 5 5 5 6 5 5 5 5 5 6 6 7 7 7 7 7 7 7
6 6 6 6 7 7 6 6 5 5 5 5 5 5 5 5 5 5 4 4 3 3 2 2 2 2 2 2 3 3 4 5 5 6 6 6 6 6 6 5 5 5 5 5 4 5 5 6 5 5 5 5 5 5 5 5 5 5 5 5 6 7 6 6 5 5 5 5 5
5 5 5 6 6 6 6 6 5 5 4 4 5 5 5 5 5 5 5 5 4 3 2 1 1 1 1 2 2 3 4 4 5 5 5 5 5 5 5 4 4 4 4 4 4 4 5 6 5 5 5 4 4 5 5 5 5 5 6 6 6 6 5 5 5 4 4 3 4
4 4 4 4 5 5 5 5 4 4 4 4 4 5 5 6 5 5 5 5 5 3 2 1 1 1 0 1 3 3 4 4 4 4 4 5 5 5 4 4 4 4 4 4 4 4 5 5 5 5 5 5 5 6 6 6 6 6 6 6 5 5 5 4 4 4 4 4 4
4 4 4 4 4 4 4 4 3 3 3 4 4 5 5 5 5 5 5 5 5 3 2 1 1 1 1 1 3 4 4 3 4 4 4 5 5 5 5 4 4 3 3 3 3 3 4 4 5 5 5 5 5 6 6 6 6 7 7 6 5 5 5 5 5 5 5 5 5
3 3 3 4 4 4 4 3 3 3 3 4 4 4 4 5 5 5 5 5 4 3 2 2 2 2 1 1 4 5 5 3 3 3 3 4 4 5 5 4 4 3 3 2 2 2 2 3 4 5 5 4 5 5 6 7 7 7 6 6 6 6 6 6 5 5 5 6 6
3 3 3 4 4 4 4 3 3 3 3 4 4 4 4 4 5 5 5 5 4 4 3 2 2 1 1 3 5 6 5 4 3 3 4 4 4 5 5 5 4 4 3 1 1 2 2 3 4 4 4 4 4 5 6 6 6 6 6 6 7 7 7 6 6 6 6 6 6
4 4 4 4 5 5 4 3 3 3 4 4 4 4 4 5 5 5 5 6 6 5 4 3 2 2 3 5 6 6 5 4 4 4 4 5 5 5 5 4 4 3 3 2 3 4 4 3 3 3 3 3 3 4 5 5 5 5 6 6 7 7 7 7 7 7 7 7 6
5 5 5 5 5 5 5 4 4 3 4 4 4 4 4 5 5 5 5 6 6 6 5 4 3 3 5 7 7 6 5 5 5 4 4 5 4 4 4 4 4 3 3 3 7 8 8 6 4 3 2 2 3 3 4 5 5 5 5 6 6 7 7 8 8 8 8 7 7
5 6 6 6 5 5 5 5 4 4 4 4 4 5 5 5 5 5 5 6 6 5 5 5 4 5 6 7 6 6 5 4 4 4 4 4 4 4 4 4 3 3 3 5 7 8 8 8 7 5 3 2 2 3 3 4 4 5 5 5 6 6 6 7 8 8 8 8 7
5 6 6 6 6 6 6 5 5 5 5 5 5 5 5 5 5 6 6 6 5 4 4 5 5 6 6 5 6 5 4 3 4 4 4 4 4 4 4 3 3 3 4 6 7 8 8 9 9 7 4 3 2 2 3 3 4 4 4 5 5 5 6 6 7 8 8 8 7
5 5 5 6 6 6 6 6 6 6 5 5 6 6 6 6 6 6 6 5 4 4 4 4 4 4 4 4 5 4 4 3 3 3 3 4 3 3 3 3 3 4 5 7 8 8 8 8 9 8 6 3 2 1 2 2 3 3 3 4 4 5 5 5 5 6 6 7 6
4 5 5 6 6 6 6 6 6 6 5 5 5 6 6 6 7 7 6 5 4 4 4 2 3 3 4 4 3 3 3 3 2 3 3 4 3 3 2 2 3 4 6 8 8 8 8 8 9 9 8 5 2 1 1 1 2 2 3 3 4 4 5 5 5 5 6 6 5
4 4 5 6 6 6 6 6 6 6 6 5 6 6 7 7 7 7 6 5 4 3 2 1 3 3 4 3 3 3 2 2 2 2 3 3 3 2 2 2 3 4 6 7 8 8 8 8 9 9 8 7 3 1 1 1 1 2 3 3 4 5 5 5 6 7 7 7 6
3 4 4 5 6 6 6 6 6 6 6 6 6 7 7 7 7 6 5 4 2 2 1 2 3 4 4 3 2 2 2 1 1 2 2 2 2 1 1 2 2 4 5 7 7 8 8 9 9 9 9 8 4 2 1 1 1 2 3 3 5 5 5 5 6 6 6 6 5
3 3 4 5 5 6 6 6 6 6 6 7 7 7 7 7 6 6 5 4 3 2 2 3 3 3 3 2 2 2 2 1 1 1 1 2 1 1 1 2 2 3 5 7 7 8 8 9 9 9 9 8 4 2 1 1 1 2 3 4 5 6 6 5 5 5 5 5 4
3 3 3 4 5 5 6 6 6 6 6 7 7 7 7 7 6 6 6 5 3 2 1 2 3 3 2 2 1 1 1 1 1 1 1 2 2 1 1 2 3 4 5 7 8 8 9 9 10 10 10 9 5 3 2 1 1 2 3 3 4 5 6 6 5 5 4 4 4
2 2 3 3 4 5 5 6 6 6 6 6 6 7 6 6 6 6 6 5 3 1 0 1 1 2 2 2 2 2 1 1 1 1 1 1 1 1 1 2 3 4 5 7 8 9 9 10 11 11 10 9 5 2 2 2 2 3 3 4 5 5 5 5 5 4 4 4 4
2 2 2 3 3 4 5 5 5 5 5 6 6 6 6 6 5 5 5 4 3 2 1 1 0 0 1 1 1 2 2 2 1 2 1 1 1 1 2 3 3 4 6 7 8 9 10 10 11 11 10 7 3 2 2 2 3 3 4 5 5 5 5 5 4 4 4 4 4
2 2 2 3 3 4 4 4 4 5 5 5 6 6 6 5 5 4 4 4 3 2 2 1 1 0 0 0 1 1 2 2 2 2 1 1 1 1 2 3 3 4 6 7 8 9 9 10 11 11 9 5 3 2 3 3 3 4 5 5 6 6 6 5 5 5 5 5 5
2 2 2 2 3 4 4 4 4 4 4 5 5 5 5 5 5 4 3 3 3 3 2 1 1 0 1 1 2 2 2 2 2 1 2 2 2 2 2 3 3 4 5 7 7 8 9 10 12 11 8 4 3 3 3 3 3 4 5 5 6 6 5 5 5 5 5 6 7
3 2 2 2 3 4 4 4 3 4 4 4 4 4 4 3 4 4 3 3 2 2 2 2 1 1 2 2 2 1 1 1 1 1 2 2 2 2 2 2 3 4 5 6 7 8 9 10 12 11 8 3 3 3 4 4 4 4 4 5 5 5 5 4 4 5 5 7 10
3 2 2 3 3 4 4 4 4 4 4 4 4 4 4 3 3 3 3 3 2 2 2 2 2 2 2 1 1 1 1 1 1 1 2 2 2 2 2 2 3 4 5 7 7 7 8 10 11 11 9 4 3 3 3 4 4 4 4 4 4 5 5 5 5 5 5 7 11
3 3 3 3 4 4 4 4 4 4 4 3 4 4 4 3 3 3 3 3 2 2 2 2 2 2 2 2 1 1 2 2 2 1 2 2 3 2 2 2 2 3 5 7 7 7 8 10 11 12 9 3 2 2 3 4 4 4 4 5 5 5 5 6 5 5 5 5 9
3 3 4 4 4 4 4 4 5 4 4 3 4 4 3 3 3 3 3 3 3 2 2 2 2 2 1 1 1 1 2 3 3 2 2 2 3 3 2 1 2 3 4 6 6 7 9 10 11 12 10 5 3 2 3 4 4 4 5 5 5 5 6 6 5 5 4 5 5
Wind_Direction
20 20 18 17 17 18 19 18 16 17 21 26 26 25 24 27 29 29 28 28 29 29 28 27 26 24 24 25 28 29 30 30 30 30 30 29 28 27 27 27 26 25 26 27 30 34 38 39 41 42 40 36 33 31 29 23 20 23 27 28 29 31 32 34 31 29 27 26 23
23 22 22 21 21 23 23 20 17 15 16 18 21 22 23 27 31 32 32 31 31 31 31 32 29 28 29 30 32 33 33 33 32 31 31 31 29 29 28 28 27 27 27 28 30 34 37 39 41 42 39 34 31 28 25 21 20 24 28 28 26 26 27 30 27 25 24 24 20
23 23 24 25 25 25 26 25 20 16 14 14 17 21 25 29 32 33 33 31 30 30 31 31 30 29 30 32 34 36 36 36 35 35 34 33 31 31 30 30 29 29 29 30 32 34 37 40 43 43 40 34 31 28 25 20 20 23 27 27 24 23 23 26 24 23 22 22 18
22 24 25 25 25 26 27 27 23 19 16 15 16 20 27 32 35 36 36 35 34 33 32 31 31 31 31 33 35 36 36 36 37 37 37 36 34 34 33 33 33 32 32 32 33 36 38 41 44 44 41 37 34 30 25 20 21 24 27 28 26 24 22 23 22 22 22 20 18
21 22 23 24 24 24 26 29 27 24 21 18 20 23 28 34 36 37 39 40 38 37 36 35 36 36 35 36 37 38 37 36 36 37 37 36 36 36 36 37 37 36 35 34 35 37 40 42 44 45 43 40 37 31 26 22 24 26 28 28 27 25 23 22 22 22 21 19 19
21 20 20 21 22 23 25 28 29 28 27 25 25 26 29 35 37 40 43 46 44 42 40 40 40 40 40 40 41 41 39 38 38 38 38 37 37 37 38 39 40 39 38 37 38 40 42 44 46 45 43 43 40 34 28 26 28 29 29 29 27 25 23 21 21 21 20 19 20
24 23 22 22 23 24 25 26 29 30 30 31 30 30 30 33 39 44 48 51 49 46 44 43 42 42 42 43 44 44 43 41 40 39 38 38 37 37 38 40 40 41 41 40 41 41 43 45 46 45 42 41 39 33 29 28 29 30 31 30 27 25 23 21 19 19 19 19 21
28 27 26 25 25 26 26 26 29 31 32 33 31 29 28 30 39 47 54 57 56 53 50 47 44 43 44 45 46 46 46 44 42 40 39 39 38 38 39 40 41 42 42 42 42 43 43 45 45 43 41 39 36 31 28 27 28 29 30 30 27 24 22 21 18 18 17 18 20
29 27 26 25 24 24 24 24 27 30 31 31 29 27 26 26 33 45 58 67 66 62 57 53 48 46 45 45 46 46 47 46 44 41 39 38 38 38 38 39 41 42 43 43 43 44 45 47 45 43 41 38 35 30 27 25 26 26 27 28 24 21 19 20 18 17 17 18 19
31 28 26 25 22 22 23 23 24 25 27 27 25 24 24 24 27 36 53 73 75 71 65 59 54 51 49 47 47 47 48 48 46 44 42 40 39 38 38 39 41 43 45 45 45 46 46 48 47 44 42 40 36 32 28 25 25 24 23 22 19 17 16 16 16 16 18 18 17
32 29 27 25 21 21 23 23 23 23 23 23 22 22 23 23 25 29 42 67 79 78 74 69 65 61 57 54 52 51 52 53 52 49 47 44 42 40 40 40 42 45 48 49 49 49 49 50 48 46 43 40 36 33 29 25 24 22 20 17 14 13 12 11 11 13 15 16 15
33 30 28 25 22 22 23 24 24 24 24 23 22 22 22 22 23 26 36 55 76 83 83 78 75 73 69 65 61 58 59 60 60 56 53 49 46 44 42 41 42 46 50 53 52 52 53 52 51 48 44 40 37 32 28 24 22 20 17 14 13 12 10 7 6 6 8 10 10
32 30 27 24 22 22 23 23 24 24 23 23 22 20 19 18 20 25 34 47 69 84 90 86 84 82 80 75 69 65 63 63 62 60 56 52 49 46 44 43 43 47 51 55 55 55 54 53 52 50 46 41 37 33 28 25 21 18 15 13 12 11 9 4 1 360 1 3 4
28 27 24 22 21 22 23 22 23 22 22 21 19 17 14 12 15 22 31 41 58 79 93 92 88 87 85 81 75 69 64 64 63 61 58 52 50 47 44 43 43 47 52 56 56 56 56 54 52 50 47 43 38 33 29 26 21 17 14 13 11 9 6 1 357 355 356 358 358
22 21 18 17 18 19 20 20 21 21 19 18 16 13 10 7 7 13 23 32 43 63 86 94 89 86 84 82 78 72 66 64 64 62 58 52 49 46 43 41 41 46 54 59 57 57 58 57 53 50 47 43 37 32 27 24 19 14 11 9 7 4 1 357 354 353 353 353 352
18 15 13 12 12 13 14 15 16 16 15 13 9 7 5 1 359 4 11 21 29 42 61 80 87 85 82 80 79 75 69 65 65 63 59 52 47 43 40 37 37 44 53 60 59 58 57 58 56 53 48 43 36 30 25 21 15 9 4 1 360 358 356 353 352 351 350 349 346
16 12 9 9 7 7 6 6 8 8 7 4 1 1 360 356 355 355 360 6 17 27 37 49 73 82 81 77 78 77 74 70 67 64 59 53 47 42 38 34 35 42 51 60 60 58 56 56 55 54 51 46 37 28 21 17 11 4 358 355 356 355 352 349 347 346 345 344 340
15 11 8 7 4 2 360 360 1 1 360 358 355 354 353 353 352 350 349 350 359 12 25 26 40 66 81 82 80 79 80 79 75 69 63 57 50 42 36 32 34 41 49 56 58 58 55 52 50 49 48 45 36 27 19 15 8 1 357 355 354 351 345 340 337 336 336 334 329
13 9 7 5 2 359 356 355 356 356 355 353 351 349 347 346 348 347 344 339 339 346 2 12 12 33 73 96 92 87 86 87 84 79 71 63 54 45 36 31 33 41 48 53 55 55 54 51 48 44 41 37 30 22 16 13 7 3 359 355 350 343 334 327 324 323 322 318 313
8 5 3 1 360 357 354 351 350 350 349 347 346 344 341 339 342 343 339 330 324 324 332 349 343 333 334 126 104 96 91 92 91 84 75 66 58 49 40 32 33 40 48 54 55 55 54 52 48 43 36 30 24 18 13 10 6 3 359 353 344 334 324 318 318 317 315 311 307
1 355 353 354 356 355 350 344 342 342 342 341 340 337 335 333 334 333 327 319 316 315 311 293 276 270 261 140 100 97 95 92 89 82 74 65 60 53 47 40 37 39 45 53 52 51 51 52 48 41 34 28 21 15 11 8 5 1 356 348 338 329 322 320 320 319 317 313 309
353 347 344 347 350 349 345 339 337 337 337 336 333 331 329 327 324 321 317 316 318 316 305 274 258 260 278 51 90 96 98 92 84 75 66 58 55 50 46 42 37 34 35 44 46 46 46 48 46 40 32 26 18 12 8 6 3 358 351 341 334 328 325 324 324 322 319 315 312
350 344 343 345 347 344 341 333 336 338 337 333 329 328 325 321 317 316 317 321 323 321 314 297 283 296 18 64 91 98 100 91 78 65 55 50 47 44 40 37 32 24 15 7 34 44 47 44 44 39 32 26 16 10 6 4 360 354 345 338 333 330 328 328 327 326 323 320 317
350 347 346 347 348 344 338 330 338 341 339 332 327 325 323 319 318 320 323 326 325 325 326 332 352 35 70 85 94 96 94 86 72 58 49 44 43 40 36 32 27 12 352 333 21 29 33 35 42 41 36 29 19 11 6 1 356 349 342 337 335 332 330 329 329 327 325 322 320
353 351 350 350 350 347 341 335 343 343 337 328 325 325 325 322 324 326 329 329 329 334 343 360 27 63 86 92 92 90 86 82 75 65 54 45 42 39 36 30 20 359 344 354 23 26 24 21 28 41 54 44 28 16 8 1 352 346 340 336 334 333 331 330 329 328 326 323 320
357 355 352 349 352 349 345 339 344 342 337 330 330 330 329 326 329 332 333 332 335 346 3 24 53 78 90 93 90 86 82 81 80 76 69 58 48 42 36 28 13 352 347 9 25 24 19 15 17 28 57 92 50 25 11 358 349 342 337 334 332 331 330 329 326 325 323 321 318
360 356 352 349 354 353 348 341 340 339 337 334 334 331 329 328 333 336 336 334 343 1 23 42 67 84 91 91 90 87 84 81 79 79 76 70 59 48 36 23 4 348 352 13 22 21 16 12 10 17 38 105 78 39 15 356 343 337 333 330 327 325 323 320 318 318 317 315 313
359 354 352 353 355 353 349 343 338 334 332 332 332 330 330 333 338 339 339 339 356 17 34 48 71 84 88 88 89 89 88 83 79 75 72 68 61 49 34 14 352 347 357 14 18 17 13 9 5 7 18 68 83 63 16 355 340 333 328 324 320 317 314 312 310 310 309 308 308
354 354 355 356 353 350 347 343 336 332 329 329 330 332 335 340 342 342 342 346 7 25 39 53 75 84 87 89 91 90 87 83 79 74 68 60 51 37 19 359 338 337 348 5 13 12 8 4 1 359 3 28 67 84 18 354 338 329 322 317 313 310 309 308 308 310 311 313 319
350 353 355 354 351 348 345 341 336 334 334 334 336 339 341 345 345 344 345 350 8 26 44 72 87 92 96 102 102 97 90 86 81 77 72 66 50 28 360 340 323 325 337 356 7 8 4 360 357 355 357 15 45 65 20 353 335 323 316 312 310 308 308 308 310 313 317 323 330
345 349 351 350 347 344 340 337 337 337 337 338 341 343 345 347 345 343 343 346 355 18 55 80 92 98 103 110 108 107 105 99 84 83 87 89 77 38 319 305 301 309 327 350 1 3 0 357 355 354 358 14 36 51 25 358 329 315 310 309 309 309 309 308 310 312 316 321 327
340 345 347 346 341 337 334 334 336 337 338 340 343 345 346 344 340 339 340 344 350 13 51 80 94 98 100 95 94 98 102 100 96 109 127 132 147 203 264 281 281 292 314 344 356 359 358 356 355 358 5 20 34 40 23 3 317 305 303 304 306 307 308 308 308 307 309 312 314
333 339 340 337 331 328 328 331 335 338 340 341 343 343 342 339 337 338 340 343 350 10 55 96 109 114 115 114 106 101 107 120 151 175 181 177 178 198 247 271 270 280 302 338 350 354 355 356 357 4 15 29 37 39 24 358 323 312 310 309 308 307 306 304 303 302 301 299 303
323 328 328 322 318 319 321 325 331 336 339 339 338 337 336 336 335 335 336 336 337 338 348 149 146 149 155 158 150 148 159 192 212 220 222 216 199 214 253 270 268 278 299 332 345 350 353 356 360 11 25 37 40 37 17 356 338 327 320 315 313 311 310 308 303 297 292 292 301
306 313 313 306 305 308 313 318 325 332 336 335 331 329 329 329 329 327 326 326 324 316 298 281 245 184 161 161 157 160 171 198 228 244 248 244 223 241 262 270 272 282 299 326 339 347 352 356 2 16 32 45 42 28 10 360 345 334 326 322 322 321 320 319 315 309 304 304 310
285 291 296 294 296 299 304 310 319 327 330 327 323 322 322 322 319 318 319 324 322 319 313 312 332 12 65 140 186 189 191 197 214 232 244 242 228 244 263 271 276 286 298 317 332 342 351 359 3 16 32 49 37 16 7 1 349 338 333 331 332 330 329 327 325 322 320 318 314
274 272 279 286 288 290 294 302 313 319 320 316 312 311 313 314 312 313 318 332 330 324 320 322 332 294 217 211 217 218 214 202 198 214 230 229 220 232 254 273 279 285 293 306 322 338 352 3 4 13 26 49 28 11 5 359 351 342 337 335 332 329 326 326 326 326 325 323 317
275 270 270 277 280 283 287 295 303 305 304 302 298 298 300 305 306 309 315 330 324 316 312 314 298 266 247 236 233 241 252 244 210 218 234 240 222 218 235 268 279 285 293 304 319 337 355 6 4 10 21 51 27 11 4 358 350 343 337 332 329 328 328 330 331 331 329 326 325
279 274 268 270 272 275 280 286 287 287 287 289 290 292 294 297 297 300 306 311 300 295 297 301 287 279 280 293 309 319 315 296 252 237 244 257 243 229 226 250 275 289 301 312 324 343 0 8 5 9 18 53 37 17 6 358 348 340 334 332 333 333 335 337 337 335 332 326 330
281 279 273 267 265 267 270 275 273 272 271 275 281 284 286 284 285 292 301 306 300 298 299 302 298 304 317 338 343 340 331 316 297 276 266 273 276 279 274 241 274 294 309 318 332 352 7 9 6 8 14 47 42 25 9 358 346 339 336 340 342 341 340 340 339 335 331 325 330
285 284 280 273 266 260 260 263 265 266 265 264 265 266 268 271 279 290 303 313 311 310 315 324 329 339 352 357 3 5 355 336 324 315 304 297 305 319 330 269 289 300 309 316 337 360 11 8 6 6 8 22 33 29 10 357 346 341 340 344 345 343 340 337 335 332 329 325 323